KC0VVH Weather Reports


time (UTC)temp
F
wind
direction
speed
knots
gust
knots
rain 1hr
in
rain 24hr
in
rain mn
in
humidity
%
barometer
mb
20260510191803 76 354 0.9 4.3 0.00 0.00 0.00 14 1017.9
20260510190903 76 352 2.6 8.7 0.00 0.00 0.00 13 1017.9
20260510190003 76 59 2.6 7.8 0.00 0.00 0.00 11 1017.9
20260510185403 75 65 2.6 7.0 0.00 0.00 0.00 15 1017.9
20260510184503 75 184 2.6 7.0 0.00 0.00 0.00 13 1017.9
20260510183624 76 44 0.9 4.3 0.00 0.00 0.00 13 1017.9
20260510182703 76 37 2.6 7.8 0.00 0.00 0.00 13 1017.9
20260510181803 74 352 2.6 7.0 0.00 0.00 0.00 15 1017.9
20260510180903 74 353 2.6 9.6 0.00 0.00 0.00 14 1017.9
20260510180003 74 22 3.5 9.6 0.00 0.00 0.00 14 1017.9
20260510175403 74 40 3.5 9.6 0.00 0.00 0.00 15 1017.9
20260510174503 74 51 1.7 5.2 0.00 0.00 0.00 14 1017.9
20260510173603 74 43 3.5 7.8 0.00 0.00 0.00 15 1017.9
20260510172724 73 22 0.9 6.1 0.00 0.00 0.00 15 1017.9
20260510171824 73 18 1.7 6.1 0.00 0.00 0.00 14 1017.9
20260510170903 73 17 0.9 6.1 0.00 0.00 0.00 15 1017.9
20260510170003 73 18 1.7 7.0 0.00 0.00 0.00 16 1017.9
20260510165403 73 21 1.7 7.0 0.00 0.00 0.00 16 1017.9
20260510164503 72 23 1.7 5.2 0.00 0.00 0.00 16 1017.9
20260510163603 71 19 0.9 3.5 0.00 0.00 0.00 17 1017.9
20260510162703 71 17 1.7 4.3 0.00 0.00 0.00 17 1017.9
20260510161803 70 19 0.9 6.1 0.00 0.00 0.00 16 1017.9
20260510160903 70 24 0.0 3.5 0.00 0.00 0.00 18 1017.9
20260510160003 69 25 0.0 3.5 0.00 0.00 0.00 18 1017.9
20260510155403 69 26 0.0 3.5 0.00 0.00 0.00 18 1017.9
20260510154502 68 26 0.0 4.3 0.00 0.00 0.00 20 1017.9
20260510153603 67 0 0.0 0.0 0.00 0.00 0.00 21 1017.9
20260510152703 67 0 0.0 0.0 0.00 0.00 0.00 20 1017.9
20260510151803 67 0 0.0 0.0 0.00 0.00 0.00 23 1017.9
20260510150903 66 0 0.0 0.0 0.00 0.00 0.00 23 1017.9
20260510150003 65 26 0.9 4.3 0.00 0.00 0.00 25 1017.9
20260510145403 65 26 1.7 7.0 0.00 0.00 0.00 26 1017.9
20260510144503 65 26 0.9 7.0 0.00 0.00 0.00 28 1017.9
20260510143603 64 27 1.7 7.0 0.00 0.00 0.00 27 1017.9
20260510142703 63 26 0.0 3.5 0.00 0.00 0.00 28 1017.9
20260510141803 62 27 0.0 3.5 0.00 0.00 0.00 30 1017.9
20260510140924 61 27 0.0 3.5 0.00 0.00 0.00 32 1017.9
20260510140024 61 27 0.9 4.3 0.00 0.00 0.00 33 1017.9
20260510135403 60 25 0.9 4.3 0.00 0.00 0.00 31 1017.9
20260510134524 60 0 0.0 0.9 0.00 0.00 0.00 35 1017.9
20260510133603 62 298 0.0 2.6 0.00 0.00 0.00 30 1017.9
20260510132724 62 0 0.0 0.0 0.00 0.00 0.00 29 1017.9
20260510131803 61 298 0.0 3.5 0.00 0.00 0.00 28 1017.9
20260510130903 60 0 0.0 0.0 0.00 0.00 0.00 27 1017.9
20260510130003 59 298 0.0 2.6 0.00 0.00 0.00 27 1017.9
20260510125403 58 0 0.0 0.0 0.00 0.00 0.00 28 1017.9
20260510124503 58 0 0.0 0.0 0.00 0.00 0.00 28 1017.9
20260510123624 58 298 0.0 3.5 0.00 0.00 0.00 28 1017.9
20260510122703 57 298 0.0 2.6 0.00 0.00 0.00 29 1017.9
20260510121803 57 298 0.0 4.3 0.00 0.00 0.00 29 1017.9
20260510120924 57 298 0.0 3.5 0.00 0.00 0.00 29 1017.9
20260510120003 57 298 0.0 3.5 0.00 0.00 0.00 29 1017.9
20260510115403 57 298 0.0 4.3 0.00 0.00 0.00 29 1017.9
20260510114503 57 298 0.0 3.5 0.00 0.00 0.00 30 1017.9
20260510113603 57 299 0.0 3.5 0.00 0.00 0.00 30 1017.9
20260510112703 57 0 0.0 0.0 0.00 0.00 0.00 30 1017.9
20260510111824 57 300 0.0 4.3 0.00 0.00 0.00 30 1017.9
20260510110903 57 243 0.0 5.2 0.00 0.00 0.00 30 1017.9
20260510110003 57 280 0.0 3.5 0.00 0.00 0.00 30 1017.9
20260510105424 57 280 0.0 3.5 0.00 0.00 0.00 30 1017.9
20260510104503 58 288 0.0 5.2 0.00 0.00 0.00 30 1017.9
20260510103603 58 290 0.0 2.6 0.00 0.00 0.00 29 1017.9
20260510102703 58 290 0.9 6.1 0.00 0.00 0.00 30 1017.9
20260510101803 58 286 0.0 2.6 0.00 0.00 0.00 30 1017.9
20260510100903 58 286 0.0 3.5 0.00 0.00 0.00 29 1017.9
20260510100003 58 286 0.0 3.5 0.00 0.00 0.00 29 1017.9
20260510095424 58 290 0.0 3.5 0.00 0.00 0.00 30 1017.9
20260510094524 58 11 0.0 3.5 0.00 0.00 0.00 30 1017.9
20260510093603 58 0 0.0 0.0 0.00 0.00 0.00 31 1017.9
20260510092703 57 0 0.0 0.0 0.00 0.00 0.00 32 1017.9
20260510091803 57 0 0.0 0.0 0.00 0.00 0.00 32 1017.9
20260510090903 57 0 0.0 0.0 0.00 0.00 0.00 33 1017.9
20260510090003 57 0 0.0 0.0 0.00 0.00 0.00 33 1017.9
20260510085403 56 0 0.0 0.0 0.00 0.00 0.00 34 1017.9
20260510084524 56 0 0.0 0.0 0.00 0.00 0.00 35 1017.9
20260510083603 55 0 0.0 0.0 0.00 0.00 0.00 35 1017.9
20260510082703 55 0 0.0 0.0 0.00 0.00 0.00 35 1017.9
20260510081803 55 0 0.0 0.0 0.00 0.00 0.00 35 1017.9
20260510080903 55 0 0.0 0.0 0.00 0.00 0.00 34 1017.9
20260510080003 56 0 0.0 0.0 0.00 0.00 0.00 34 1017.9
20260510075424 56 0 0.0 0.0 0.00 0.00 0.00 34 1017.9
20260510074503 56 0 0.0 0.0 0.00 0.00 0.00 32 1017.9
20260510073603 57 0 0.0 0.0 0.00 0.00 0.00 32 1017.9
20260510072703 57 0 0.0 0.0 0.00 0.00 0.00 32 1017.9
20260510071803 58 11 0.0 1.7 0.00 0.00 0.00 31 1017.9
20260510070903 58 0 0.0 0.0 0.00 0.00 0.00 30 1017.9
20260510070003 59 0 0.0 0.0 0.00 0.00 0.00 29 1017.9
20260510065403 59 0 0.0 0.0 0.00 0.00 0.00 28 1017.9
20260510064503 60 0 0.0 0.0 0.00 0.00 0.00 28 1017.9
20260510063603 60 0 0.0 0.0 0.00 0.00 0.00 27 1017.9
20260510062703 61 0 0.0 0.0 0.00 0.00 0.00 24 1017.9
20260510061803 62 0 0.0 0.0 0.00 0.00 0.00 24 1017.9
20260510060903 63 11 0.0 1.7 0.00 0.00 0.00 21 1017.9
20260510060024 64 11 0.0 1.7 0.00 0.00 0.00 19 1017.9
20260510055403 64 0 0.0 0.0 0.00 0.00 0.00 17 1017.9
20260510054503 64 0 0.0 0.0 0.00 0.00 0.00 15 1017.9
20260510053624 66 0 0.0 0.0 0.00 0.00 0.00 13 1017.9
20260510052703 67 15 0.9 9.6 0.00 0.00 0.00 11 1017.9
20260510051803 69 303 0.9 5.2 0.00 0.00 0.00 9 1017.9
20260510050903 70 286 1.7 10.4 0.00 0.00 0.00 8 1017.9
20260510050003 70 302 1.7 9.6 0.00 0.00 0.00 8 1017.9
20260510045403 70 305 0.9 7.0 0.00 0.00 0.00 8 1017.9
20260510044503 70 299 0.0 6.1 0.00 0.00 0.00 8 1017.9
20260510043624 70 263 0.0 4.3 0.00 0.00 0.00 7 1017.9
20260510042703 71 291 1.7 10.4 0.00 0.00 0.00 7 1017.9
20260510041824 71 277 1.7 10.4 0.00 0.00 0.00 6 1017.9
20260510040924 72 288 1.7 9.6 0.00 0.00 0.00 6 1017.9
20260510040003 72 296 0.9 5.2 0.00 0.00 0.00 6 1017.9
20260510035403 72 276 0.9 11.3 0.00 0.00 0.00 6 1017.9
20260510034503 72 291 0.9 7.8 0.00 0.00 0.00 5 1017.9
20260510033603 73 298 1.7 13.0 0.00 0.00 0.00 5 1017.9
20260510032724 73 282 2.6 12.2 0.00 0.00 0.00 5 1017.9
20260510031803 72 301 0.9 7.8 0.00 0.00 0.00 4 1017.9
20260510030903 73 298 1.7 8.7 0.00 0.00 0.00 4 1017.9
20260510030003 74 289 1.7 12.2 0.00 0.00 0.00 5 1017.9
20260510025403 74 305 1.7 12.2 0.00 0.00 0.00 5 1017.9
20260510024503 74 300 1.7 10.4 0.00 0.00 0.00 5 1017.9
20260510023603 75 294 0.9 7.8 0.00 0.00 0.00 6 1017.9
20260510022703 75 303 1.7 7.8 0.00 0.00 0.00 6 1017.9
20260510021824 76 301 1.7 11.3 0.00 0.00 0.00 6 1017.9
20260510020903 76 275 0.9 11.3 0.00 0.00 0.00 5 1017.9
20260510020003 76 23 0.0 2.6 0.00 0.00 0.00 5 1017.9
20260510015403 76 23 0.0 2.6 0.00 0.00 0.00 4 1017.9
20260510014503 76 23 0.0 2.6 0.00 0.00 0.00 4 1017.9
20260510013624 76 0 0.0 1.7 0.00 0.00 0.00 5 1017.9
20260510012703 77 24 0.9 5.2 0.00 0.00 0.00 5 1017.9
20260510011803 78 26 0.0 3.5 0.00 0.00 0.00 6 1017.9
20260510010924 78 26 0.0 2.6 0.00 0.00 0.00 7 1017.9
20260510010003 78 0 0.0 0.0 0.00 0.00 0.00 8 1017.9
20260510005403 78 0 0.0 0.0 0.00 0.00 0.00 7 1017.9
20260510004503 78 21 0.0 2.6 0.00 0.00 0.00 7 1017.9
20260510003603 79 13 0.9 7.0 0.00 0.00 0.00 7 1017.9
20260510002703 80 22 1.7 7.0 0.00 0.00 0.00 6 1017.9
20260510001803 81 10 1.7 7.8 0.00 0.00 0.00 7 1017.9
20260510000924 82 19 3.5 10.4 0.00 0.00 0.00 5 1017.9
20260510000003 82 11 3.5 12.2 0.00 0.00 0.00 6 1017.9
20260509235403 82 18 2.6 7.8 0.00 0.00 0.00 6 1017.9
20260509234503 82 19 0.9 8.7 0.00 0.00 0.00 6 1017.9
20260509233603 82 9 1.7 8.7 0.00 0.00 0.00 5 1017.9
20260509232703 83 343 1.7 7.8 0.00 0.00 0.00 4 1017.9
20260509231803 83 355 0.9 9.6 0.00 0.00 0.00 5 1017.9
20260509230903 83 360 2.6 9.6 0.00 0.00 0.00 5 1017.9
20260509230003 83 345 1.7 9.6 0.00 0.00 0.00 4 1017.9
20260509225403 83 304 1.7 9.6 0.00 0.00 0.00 5 1017.9
20260509224503 84 221 2.6 11.3 0.00 0.00 0.00 4 1017.9
20260509223603 84 262 1.7 8.7 0.00 0.00 0.00 4 1017.9
20260509222703 83 210 1.7 11.3 0.00 0.00 0.00 6 1017.9
20260509221803 84 266 0.9 7.8 0.00 0.00 0.00 6 1017.9
20260509220903 84 206 2.6 16.5 0.00 0.00 0.00 6 1017.9
20260509220003 85 308 0.9 8.7 0.00 0.00 0.00 6 1017.9
20260509215403 84 338 2.6 13.0 0.00 0.00 0.00 7 1017.9
20260509214503 84 337 2.6 10.4 0.00 0.00 0.00 6 1017.9
20260509213603 83 323 2.6 13.0 0.00 0.00 0.00 7 1017.9
20260509212703 82 293 2.6 9.6 0.00 0.00 0.00 7 1017.9
20260509211824 83 317 2.6 11.3 0.00 0.00 0.00 8 1017.9
20260509210903 83 2 5.2 15.6 0.00 0.00 0.00 8 1017.9
20260509210024 83 354 2.6 7.8 0.00 0.00 0.00 8 1017.9
20260509205403 83 332 1.7 8.7 0.00 0.00 0.00 8 1017.9
20260509204503 83 307 2.6 9.6 0.00 0.00 0.00 9 1017.9
20260509202703 82 333 3.5 12.2 0.00 0.00 0.00 9 1017.9
20260509201803 83 324 4.3 15.6 0.00 0.00 0.00 8 1017.9
20260509200903 84 2 2.6 9.6 0.00 0.00 0.00 10 1017.9
20260509200024 83 308 1.7 8.7 0.00 0.00 0.00 10 1017.9
20260509195403 82 298 3.5 9.6 0.00 0.00 0.00 10 1017.9
20260509194503 83 356 2.6 12.2 0.00 0.00 0.00 10 1017.9
20260509193603 83 356 2.6 10.4 0.00 0.00 0.00 9 1017.9
20260509192703 83 333 4.3 12.2 0.00 0.00 0.00 9 1017.9